Regional Weather Roundup
Issued by NWS Glasgow, MT

Home | Current Version | Previous Version | Text Only | Print | Product List | Glossary On
Versions: 1 2 3 4 5 6 7 8 9 10 11 12 13 14 15 16 17 18 19 20 21 22 23 24 25 26 27 28 29 30 31 32 33 34 35 36 37 38 39 40 41 42 43 44 45 46 47 48 49 50
000
ASUS45 KGGW 202115
RWRGGW
HOURLY REGIONAL WEATHER ROUNDUP FOR NORTHEAST MONTANA
NATIONAL WEATHER SERVICE GLASGOW MONTANA
200 PM MST MON NOV 20 2017

NOTE: "FAIR" INDICATES FEW OR NO CLOUDS BELOW 12,000 FEET WITH NO
SIGNIFICANT WEATHER AND/OR OBSTRUCTIONS TO VISISBILITY.

NORTHEAST MONTANA


CITY           SKY/WX    TMP DP  RH WIND       PRES   REMARKS
GLASGOW        CLOUDY    36  19  50 NW18      29.71R
PLENTYWOOD       N/A     32  23  69 NW26G46     N/A
WOLF POINT     CLOUDY    40  17  39 NW14      29.70R
JORDAN           N/A     39  25  57 N18       29.71R
WINNETT          N/A     42  27  55 NE9G20      N/A
SIDNEY         MOSUNNY   39  26  59 N21       29.66R
GLENDIVE       PTSUNNY   43  26  51 NW21G26   29.66R
MALTA            N/A     36  22  56 NW10G18     N/A
SCOBEY           N/A     31  14  49 NW16G24   29.67R

FORT PECK REPORTS


CITY           SKY/WX    TMP DP  RH WIND       PRES   REMARKS
FORT PECK        N/A     37  21  52 NW26G37     N/A
THE PINES        N/A     38  20  48 N12G24      N/A

SOUTHEAST MONTANA


CITY           SKY/WX    TMP DP  RH WIND       PRES   REMARKS
BILLINGS       CLOUDY    53  25  33 SW10      29.68R
MILES CITY     MOSUNNY   50  28  42 N18       29.67R
BAKER          SUNNY     51  26  37 NW21G35   29.63R
LIVINGSTON     LGT RAIN  43  33  68 SW41G51   29.74R

CENTRAL MONTANA


CITY           SKY/WX    TMP DP  RH WIND       PRES   REMARKS
HAVRE          CLOUDY    34  23  64 N9        29.78R
LEWISTOWN      CLOUDY    42  30  62 N13       29.68R
GREAT FALLS    CLOUDY    37  26  64 NE16      29.72R
CUT BANK       CLOUDY    30  19  63 NE8       29.73S
HELENA         CLOUDY    48  35  60 SE6       29.72F
BUTTE          CLOUDY    43  31  62 NE7       29.78F
BOZEMAN        CLOUDY    45  29  53 SW12G21   29.77R

WESTERN MONTANA


CITY           SKY/WX    TMP DP  RH WIND       PRES   REMARKS
MISSOULA       LGT RAIN  39  38  96 VRB3      29.74F
KALISPELL      NOT AVBL

NORTH DAKOTA


CITY           SKY/WX    TMP DP  RH WIND       PRES   REMARKS
WILLISTON      PTSUNNY   38  25  59 NW23G30   29.62R
DICKINSON      SUNNY     50  25  37 NW26G39   29.54R
MINOT          MOSUNNY   39  27  62 W33G51    29.48R
BISMARCK       SUNNY     59  25  27 NW23G38   29.49R

SOUTHERN SASKATCHEWAN


CITY           SKY/WX    TMP DP  RH WIND       PRES   REMARKS
REGINA         LGT SNOW  18  12  79 NW29      29.63R BLWGSNOWWCI  -2
MOOSE JAW      MOSUNNY   18  12  79 NW32G41   29.68R WCI  -3
ESTEVAN        CLOUDY    27  19  74 NW32G46   29.57R
SWIFT CURRENT  FLURRIES  16  10  79 NW21G32   29.72R WCI  -2




USA.gov is the U.S. government's official web portal to all federal, state and local government web resources and services.